Torna al catalogo

KUIPER-00062

AttivoComunicazioniLEO
NORAD 64522·PAYLOAD·🇺🇸 United States

Lanciato Jun 23, 2025 da Cape Canaveral Space Force Station

Loading…

Prossimi Passaggi (prossime 24 ore)

TLE

AggiornatoSource: CelesTrak SupGP

Epoca: Sep 14, 2026, 23:04 UTC

1 64522C 25134Y   26257.96164352 -.00002594  00000+0 -33972-3 0  2577
2 64522  51.8940 113.5908 0000859 104.8234 122.0779 14.79921238    14

Traccia KUIPER-00062 in tempo reale con AllMySat

Download on the App Store